Year,Month,Day,Hour,Minute,Value (Times are PST for temperature in C)
2013,01,11,00,00,2.10
2013,01,11,00,01,2.10
2013,01,11,00,02,2.10
2013,01,11,00,03,2.10
2013,01,11,00,04,2.10
2013,01,11,00,05,2.00
2013,01,11,00,06,2.00
2013,01,11,00,07,2.00
2013,01,11,00,08,2.00
2013,01,11,00,09,2.00
2013,01,11,00,10,2.00
2013,01,11,00,11,2.00
2013,01,11,00,12,2.00
2013,01,11,00,13,2.00
2013,01,11,00,14,2.00
2013,01,11,00,15,2.00
2013,01,11,00,16,1.90
2013,01,11,00,17,2.00
2013,01,11,00,18,2.00
2013,01,11,00,19,2.00
2013,01,11,00,20,2.00
2013,01,11,00,21,2.00
2013,01,11,00,22,2.00
2013,01,11,00,23,2.00
2013,01,11,00,24,2.00
2013,01,11,00,25,2.00
2013,01,11,00,26,2.00
2013,01,11,00,27,2.00
2013,01,11,00,28,2.00
2013,01,11,00,29,2.00
2013,01,11,00,30,2.00
2013,01,11,00,31,2.00
2013,01,11,00,32,2.00
2013,01,11,00,33,2.00
2013,01,11,00,34,2.00
2013,01,11,00,35,2.00
2013,01,11,00,36,2.00
2013,01,11,00,37,2.10
2013,01,11,00,38,2.10
2013,01,11,00,39,2.10
2013,01,11,00,40,2.10
2013,01,11,00,41,2.10
2013,01,11,00,42,2.10
2013,01,11,00,43,2.10
2013,01,11,00,44,2.00
2013,01,11,00,45,2.00
2013,01,11,00,46,2.00
2013,01,11,00,47,2.00
2013,01,11,00,48,2.00
2013,01,11,00,49,2.00
2013,01,11,00,50,2.00
2013,01,11,00,51,2.00
2013,01,11,00,52,2.00
2013,01,11,00,53,1.90
2013,01,11,00,54,1.90
2013,01,11,00,55,1.90
2013,01,11,00,56,1.90
2013,01,11,00,57,1.90
2013,01,11,00,58,1.90
2013,01,11,00,59,1.90
2013,01,11,01,00,1.90
2013,01,11,01,01,1.90
2013,01,11,01,02,1.90
2013,01,11,01,03,1.80
2013,01,11,01,04,1.80
2013,01,11,01,05,1.80
2013,01,11,01,06,1.80
2013,01,11,01,07,1.80
2013,01,11,01,08,1.80
2013,01,11,01,09,1.80
2013,01,11,01,10,1.80
2013,01,11,01,11,1.80
2013,01,11,01,12,1.80
2013,01,11,01,13,1.80
2013,01,11,01,14,1.80
2013,01,11,01,15,1.80
2013,01,11,01,16,1.80
2013,01,11,01,17,1.80
2013,01,11,01,18,1.80
2013,01,11,01,19,1.80
2013,01,11,01,20,1.80
2013,01,11,01,21,1.80
2013,01,11,01,22,1.80
2013,01,11,01,23,1.80
2013,01,11,01,24,1.80
2013,01,11,01,25,1.70
2013,01,11,01,26,1.70
2013,01,11,01,27,1.70
2013,01,11,01,28,1.70
2013,01,11,01,29,1.70
2013,01,11,01,30,1.70
2013,01,11,01,31,1.70
2013,01,11,01,32,1.70
2013,01,11,01,33,1.70
2013,01,11,01,34,1.70
2013,01,11,01,35,1.70
2013,01,11,01,36,1.70
2013,01,11,01,37,1.70
2013,01,11,01,38,1.70
2013,01,11,01,39,1.70
2013,01,11,01,40,1.70
2013,01,11,01,41,1.70
2013,01,11,01,42,1.70
2013,01,11,01,43,1.70
2013,01,11,01,44,1.70
2013,01,11,01,45,1.70
2013,01,11,01,46,1.70
2013,01,11,01,47,1.70
2013,01,11,01,48,1.70
2013,01,11,01,49,1.70
2013,01,11,01,50,1.70
2013,01,11,01,51,1.70
2013,01,11,01,52,1.70
2013,01,11,01,53,1.70
2013,01,11,01,54,1.70
2013,01,11,01,55,1.70
2013,01,11,01,56,1.70
2013,01,11,01,57,1.70
2013,01,11,01,58,1.70
2013,01,11,01,59,1.70
2013,01,11,02,00,1.70
2013,01,11,02,01,1.70
2013,01,11,02,02,1.70
2013,01,11,02,03,1.70
2013,01,11,02,04,1.70
2013,01,11,02,05,1.70
2013,01,11,02,06,1.70
2013,01,11,02,07,1.70
2013,01,11,02,08,1.70
2013,01,11,02,09,1.70
2013,01,11,02,10,1.70
2013,01,11,02,11,1.70
2013,01,11,02,12,1.60
2013,01,11,02,13,1.60
2013,01,11,02,14,1.60
2013,01,11,02,15,1.60
2013,01,11,02,16,1.60
2013,01,11,02,17,1.60
2013,01,11,02,18,1.70
2013,01,11,02,19,1.70
2013,01,11,02,20,1.70
2013,01,11,02,21,1.70
2013,01,11,02,22,1.70
2013,01,11,02,23,1.70
2013,01,11,02,24,1.70
2013,01,11,02,25,1.60
2013,01,11,02,26,1.60
2013,01,11,02,27,1.60
2013,01,11,02,28,1.60
2013,01,11,02,29,1.60
2013,01,11,02,30,1.60
2013,01,11,02,31,1.60
2013,01,11,02,32,1.60
2013,01,11,02,33,1.60
2013,01,11,02,34,1.60
2013,01,11,02,35,1.60
2013,01,11,02,36,1.60
2013,01,11,02,37,1.60
2013,01,11,02,38,1.60
2013,01,11,02,39,1.60
2013,01,11,02,40,1.60
2013,01,11,02,41,1.60
2013,01,11,02,42,1.60
2013,01,11,02,43,1.50
2013,01,11,02,44,1.60
2013,01,11,02,45,1.50
2013,01,11,02,46,1.50
2013,01,11,02,47,1.50
2013,01,11,02,48,1.50
2013,01,11,02,49,1.50
2013,01,11,02,50,1.50
2013,01,11,02,51,1.50
2013,01,11,02,52,1.50
2013,01,11,02,53,1.50
2013,01,11,02,54,1.50
2013,01,11,02,55,1.50
2013,01,11,02,56,1.50
2013,01,11,02,57,1.40
2013,01,11,02,58,1.40
2013,01,11,02,59,1.40
2013,01,11,03,00,1.40
2013,01,11,03,01,1.40
2013,01,11,03,02,1.40
2013,01,11,03,03,1.40
2013,01,11,03,04,1.40
2013,01,11,03,05,1.40
2013,01,11,03,06,1.40
2013,01,11,03,07,1.40
2013,01,11,03,08,1.30
2013,01,11,03,09,1.30
2013,01,11,03,10,1.30
2013,01,11,03,11,1.30
2013,01,11,03,12,1.30
2013,01,11,03,13,1.30
2013,01,11,03,14,1.30
2013,01,11,03,15,1.30
2013,01,11,03,16,1.30
2013,01,11,03,17,1.30
2013,01,11,03,18,1.40
2013,01,11,03,19,1.40
2013,01,11,03,20,1.40
2013,01,11,03,21,1.40
2013,01,11,03,22,1.40
2013,01,11,03,23,1.40
2013,01,11,03,24,1.40
2013,01,11,03,25,1.40
2013,01,11,03,26,1.40
2013,01,11,03,27,1.40
2013,01,11,03,28,1.40
2013,01,11,03,29,1.40
2013,01,11,03,30,1.40
2013,01,11,03,31,1.40
2013,01,11,03,32,1.30
2013,01,11,03,33,1.40
2013,01,11,03,34,1.30
2013,01,11,03,35,1.30
2013,01,11,03,36,1.30
2013,01,11,03,37,1.30
2013,01,11,03,38,1.30
2013,01,11,03,39,1.30
2013,01,11,03,40,1.30
2013,01,11,03,41,1.30
2013,01,11,03,42,1.30
2013,01,11,03,43,1.30
2013,01,11,03,44,1.30
2013,01,11,03,45,1.30
2013,01,11,03,46,1.30
2013,01,11,03,47,1.30
2013,01,11,03,48,1.30
2013,01,11,03,49,1.20
2013,01,11,03,50,1.20
2013,01,11,03,51,1.20
2013,01,11,03,52,1.20
2013,01,11,03,53,1.20
2013,01,11,03,54,1.30
2013,01,11,03,55,1.30
2013,01,11,03,56,1.30
2013,01,11,03,57,1.30
2013,01,11,03,58,1.30
2013,01,11,03,59,1.30
2013,01,11,04,00,1.20
2013,01,11,04,01,1.20
2013,01,11,04,02,1.20
2013,01,11,04,03,1.20
2013,01,11,04,04,1.20
2013,01,11,04,05,1.20
2013,01,11,04,06,1.20
2013,01,11,04,07,1.20
2013,01,11,04,08,1.20
2013,01,11,04,09,1.20
2013,01,11,04,10,1.20
2013,01,11,04,11,1.20
2013,01,11,04,12,1.20
2013,01,11,04,13,1.20
2013,01,11,04,14,1.20
2013,01,11,04,15,1.20
2013,01,11,04,16,1.20
2013,01,11,04,17,1.20
2013,01,11,04,18,1.20
2013,01,11,04,19,1.20
2013,01,11,04,20,1.20
2013,01,11,04,21,1.20
2013,01,11,04,22,1.20
2013,01,11,04,23,1.20
2013,01,11,04,24,1.20
2013,01,11,04,25,1.10
2013,01,11,04,26,1.10
2013,01,11,04,27,1.10
2013,01,11,04,28,1.10
2013,01,11,04,29,1.10
2013,01,11,04,30,1.10
2013,01,11,04,31,1.10
2013,01,11,04,32,1.10
2013,01,11,04,33,1.10
2013,01,11,04,34,1.10
2013,01,11,04,35,1.10
2013,01,11,04,36,1.10
2013,01,11,04,37,1.10
2013,01,11,04,38,1.10
2013,01,11,04,39,1.10
2013,01,11,04,40,1.10
2013,01,11,04,41,1.10
2013,01,11,04,42,1.10
2013,01,11,04,43,1.10
2013,01,11,04,44,1.20
2013,01,11,04,45,1.20
2013,01,11,04,46,1.20
2013,01,11,04,47,1.20
2013,01,11,04,48,1.10
2013,01,11,04,49,1.10
2013,01,11,04,50,1.10
2013,01,11,04,51,1.10
2013,01,11,04,52,1.10
2013,01,11,04,53,1.10
2013,01,11,04,54,1.10
2013,01,11,04,55,1.10
2013,01,11,04,56,1.00
2013,01,11,04,57,1.00
2013,01,11,04,58,1.00
2013,01,11,04,59,1.00
2013,01,11,05,00,1.00
2013,01,11,05,01,1.00
2013,01,11,05,02,1.00
2013,01,11,05,03,1.00
2013,01,11,05,04,1.00
2013,01,11,05,05,1.00
2013,01,11,05,06,1.00
2013,01,11,05,07,1.10
2013,01,11,05,08,1.10
2013,01,11,05,09,1.10
2013,01,11,05,10,1.10
2013,01,11,05,11,1.10
2013,01,11,05,12,1.10
2013,01,11,05,13,1.10
2013,01,11,05,14,1.10
2013,01,11,05,15,1.10
2013,01,11,05,16,1.10
2013,01,11,05,17,1.00
2013,01,11,05,18,1.00
2013,01,11,05,19,1.00
2013,01,11,05,20,1.00
2013,01,11,05,21,1.00
2013,01,11,05,22,1.00
2013,01,11,05,23,1.00
2013,01,11,05,24,1.00
2013,01,11,05,25,1.00
2013,01,11,05,26,1.00
2013,01,11,05,27,1.00
2013,01,11,05,28,1.00
2013,01,11,05,29,1.00
2013,01,11,05,30,1.00
2013,01,11,05,31,1.00
2013,01,11,05,32,1.00
2013,01,11,05,33,1.00
2013,01,11,05,34,0.90
2013,01,11,05,35,0.90
2013,01,11,05,36,0.90
2013,01,11,05,37,0.90
2013,01,11,05,38,0.80
2013,01,11,05,39,0.80
2013,01,11,05,40,0.80
2013,01,11,05,41,0.80
2013,01,11,05,42,0.80
2013,01,11,05,43,0.80
2013,01,11,05,44,0.80
2013,01,11,05,45,0.80
2013,01,11,05,46,0.80
2013,01,11,05,47,0.80
2013,01,11,05,48,0.80
2013,01,11,05,49,0.80
2013,01,11,05,50,0.80
2013,01,11,05,51,0.80
2013,01,11,05,52,0.80
2013,01,11,05,53,0.80
2013,01,11,05,54,0.80
2013,01,11,05,55,0.80
2013,01,11,05,56,0.80
2013,01,11,05,57,0.80
2013,01,11,05,58,0.80
2013,01,11,05,59,0.80
2013,01,11,06,00,0.70
2013,01,11,06,01,0.70
2013,01,11,06,02,0.70
2013,01,11,06,03,0.70
2013,01,11,06,04,0.60
2013,01,11,06,05,0.60
2013,01,11,06,06,0.60
2013,01,11,06,07,0.60
2013,01,11,06,08,0.60
2013,01,11,06,09,0.60
2013,01,11,06,10,0.60
2013,01,11,06,11,0.50
2013,01,11,06,12,0.50
2013,01,11,06,13,0.50
2013,01,11,06,14,0.50
2013,01,11,06,15,0.50
2013,01,11,06,16,0.50
2013,01,11,06,17,0.50
2013,01,11,06,18,0.50
2013,01,11,06,19,0.40
2013,01,11,06,20,0.40
2013,01,11,06,21,0.40
2013,01,11,06,22,0.40
2013,01,11,06,23,0.40
2013,01,11,06,24,0.30
2013,01,11,06,25,0.30
2013,01,11,06,26,0.30
2013,01,11,06,27,0.30
2013,01,11,06,28,0.30
2013,01,11,06,29,0.30
2013,01,11,06,30,0.30
2013,01,11,06,31,0.30
2013,01,11,06,32,0.40
2013,01,11,06,33,0.40
2013,01,11,06,34,0.40
2013,01,11,06,35,0.40
2013,01,11,06,36,0.40
2013,01,11,06,37,0.40
2013,01,11,06,38,0.40
2013,01,11,06,39,0.40
2013,01,11,06,40,0.40
2013,01,11,06,41,0.40
2013,01,11,06,42,0.40
2013,01,11,06,43,0.40
2013,01,11,06,44,0.40
2013,01,11,06,45,0.40
2013,01,11,06,46,0.40
2013,01,11,06,47,0.40
2013,01,11,06,48,0.40
2013,01,11,06,49,0.30
2013,01,11,06,50,0.30
2013,01,11,06,51,0.30
2013,01,11,06,52,0.30
2013,01,11,06,53,0.30
2013,01,11,06,54,0.20
2013,01,11,06,55,0.20
2013,01,11,06,56,0.20
2013,01,11,06,57,0.20
2013,01,11,06,58,0.20
2013,01,11,06,59,0.20
2013,01,11,07,00,0.20
2013,01,11,07,01,0.20
2013,01,11,07,02,0.10
2013,01,11,07,03,0.10
2013,01,11,07,04,0.10
2013,01,11,07,05,0.10
2013,01,11,07,06,0.10
2013,01,11,07,07,0.10
2013,01,11,07,08,0.10
2013,01,11,07,09,0.10
2013,01,11,07,10,0.10
2013,01,11,07,11,0.10
2013,01,11,07,12,0.10
2013,01,11,07,13,0.10
2013,01,11,07,14,0.10
2013,01,11,07,15,0.10
2013,01,11,07,16,0.10
2013,01,11,07,17,0.10
2013,01,11,07,18,0.10
2013,01,11,07,19,0.10
2013,01,11,07,20,0.10
2013,01,11,07,21,0.10
2013,01,11,07,22,0.10
2013,01,11,07,23,0.10
2013,01,11,07,24,0.20
2013,01,11,07,25,0.20
2013,01,11,07,26,0.20
2013,01,11,07,27,0.20
2013,01,11,07,28,0.20
2013,01,11,07,29,0.20
2013,01,11,07,30,0.30
2013,01,11,07,31,0.30
2013,01,11,07,32,0.30
2013,01,11,07,33,0.30
2013,01,11,07,34,0.30
2013,01,11,07,35,0.30
2013,01,11,07,36,0.30
2013,01,11,07,37,0.30
2013,01,11,07,38,0.30
2013,01,11,07,39,0.30
2013,01,11,07,40,0.30
2013,01,11,07,41,0.30
2013,01,11,07,42,0.40
2013,01,11,07,43,0.40
2013,01,11,07,44,0.40
2013,01,11,07,45,0.50
2013,01,11,07,46,0.50
2013,01,11,07,47,0.50
2013,01,11,07,48,0.50
2013,01,11,07,49,0.50
2013,01,11,07,50,0.50
2013,01,11,07,51,0.50
2013,01,11,07,52,0.60
2013,01,11,07,53,0.60
2013,01,11,07,54,0.60
2013,01,11,07,55,0.60
2013,01,11,07,56,0.50
2013,01,11,07,57,0.50
2013,01,11,07,58,0.50
2013,01,11,07,59,0.50
2013,01,11,08,00,0.50
2013,01,11,08,01,0.50
2013,01,11,08,02,0.40
2013,01,11,08,03,0.40
2013,01,11,08,04,0.40
2013,01,11,08,05,0.40
2013,01,11,08,06,0.40
2013,01,11,08,07,0.40
2013,01,11,08,08,0.40
2013,01,11,08,09,0.40
2013,01,11,08,10,0.30
2013,01,11,08,11,0.30
2013,01,11,08,12,0.30
2013,01,11,08,13,0.30
2013,01,11,08,14,0.30
2013,01,11,08,15,0.30
2013,01,11,08,16,0.30
2013,01,11,08,17,0.30
2013,01,11,08,18,0.30
2013,01,11,08,19,0.30
2013,01,11,08,20,0.20
2013,01,11,08,21,0.20
2013,01,11,08,22,0.20
2013,01,11,08,23,0.20
2013,01,11,08,24,0.10
2013,01,11,08,25,0.10
2013,01,11,08,26,0.10
2013,01,11,08,27,0.10
2013,01,11,08,28,0.00
2013,01,11,08,29,0.00
2013,01,11,08,30,0.00
2013,01,11,08,31,0.00
2013,01,11,08,32,-0.10
2013,01,11,08,33,-0.10
2013,01,11,08,34,-0.10
2013,01,11,08,35,0.00
2013,01,11,08,36,0.00
2013,01,11,08,37,0.00
2013,01,11,08,38,0.00
2013,01,11,08,39,0.00
2013,01,11,08,40,0.00
2013,01,11,08,41,0.10
2013,01,11,08,42,0.10
2013,01,11,08,43,0.20
2013,01,11,08,44,0.30
2013,01,11,08,45,0.30
2013,01,11,08,46,0.40
2013,01,11,08,47,0.50
2013,01,11,08,48,0.60
2013,01,11,08,49,0.70
2013,01,11,08,50,0.70
2013,01,11,08,51,0.80
2013,01,11,08,52,0.90
2013,01,11,08,53,1.00
2013,01,11,08,54,1.00
2013,01,11,08,55,1.10
2013,01,11,08,56,1.10
2013,01,11,08,57,1.20
2013,01,11,08,58,1.20
2013,01,11,08,59,1.30
2013,01,11,09,00,1.30
2013,01,11,09,01,1.40
2013,01,11,09,02,1.40
2013,01,11,09,03,1.40
2013,01,11,09,04,1.50
2013,01,11,09,05,1.50
2013,01,11,09,06,1.60
2013,01,11,09,07,1.60
2013,01,11,09,08,1.60
2013,01,11,09,09,1.60
2013,01,11,09,10,1.70
2013,01,11,09,11,1.70
2013,01,11,09,12,1.70
2013,01,11,09,13,1.70
2013,01,11,09,14,1.70
2013,01,11,09,15,1.70
2013,01,11,09,16,1.70
2013,01,11,09,17,1.80
2013,01,11,09,18,1.80
2013,01,11,09,19,1.80
2013,01,11,09,20,1.90
2013,01,11,09,21,1.90
2013,01,11,09,22,2.00
2013,01,11,09,23,2.00
2013,01,11,09,24,2.00
2013,01,11,09,25,2.10
2013,01,11,09,26,2.10
2013,01,11,09,27,2.10
2013,01,11,09,28,2.20
2013,01,11,09,29,2.20
2013,01,11,09,30,2.20
2013,01,11,09,31,2.20
2013,01,11,09,32,2.30
2013,01,11,09,33,2.30
2013,01,11,09,34,2.30
2013,01,11,09,35,2.30
2013,01,11,09,36,2.30
2013,01,11,09,37,2.30
2013,01,11,09,38,2.30
2013,01,11,09,39,2.30
2013,01,11,09,40,2.30
2013,01,11,09,41,2.30
2013,01,11,09,42,2.30
2013,01,11,09,43,2.20
2013,01,11,09,44,2.20
2013,01,11,09,45,2.20
2013,01,11,09,46,2.30
2013,01,11,09,47,2.20
2013,01,11,09,48,2.30
2013,01,11,09,49,2.30
2013,01,11,09,50,2.30
2013,01,11,09,51,2.30
2013,01,11,09,52,2.30
2013,01,11,09,53,2.30
2013,01,11,09,54,2.30
2013,01,11,09,55,2.30
2013,01,11,09,56,2.30
2013,01,11,09,57,2.30
2013,01,11,09,58,2.30
2013,01,11,09,59,2.30
2013,01,11,10,00,2.30
2013,01,11,10,01,2.30
2013,01,11,10,02,2.30
2013,01,11,10,03,2.30
2013,01,11,10,04,2.30
2013,01,11,10,05,2.30
2013,01,11,10,06,2.30
2013,01,11,10,07,2.30
2013,01,11,10,08,2.30
2013,01,11,10,09,2.40
2013,01,11,10,10,2.40
2013,01,11,10,11,2.40
2013,01,11,10,12,2.40
2013,01,11,10,13,2.40
2013,01,11,10,14,2.40
2013,01,11,10,15,2.50
2013,01,11,10,16,2.50
2013,01,11,10,17,2.50
2013,01,11,10,18,2.50
2013,01,11,10,19,2.50
2013,01,11,10,20,2.60
2013,01,11,10,21,2.60
2013,01,11,10,22,2.60
2013,01,11,10,23,2.70
2013,01,11,10,24,2.70
2013,01,11,10,25,2.80
2013,01,11,10,26,2.80
2013,01,11,10,27,2.80
2013,01,11,10,28,2.80
2013,01,11,10,29,2.80
2013,01,11,10,30,2.90
2013,01,11,10,31,2.90
2013,01,11,10,32,2.90
2013,01,11,10,33,2.90
2013,01,11,10,34,2.80
2013,01,11,10,35,2.80
2013,01,11,10,36,2.80
2013,01,11,10,37,2.80
2013,01,11,10,38,2.80
2013,01,11,10,39,2.80
2013,01,11,10,40,2.70
2013,01,11,10,41,2.70
2013,01,11,10,42,2.70
2013,01,11,10,43,2.70
2013,01,11,10,44,2.70
2013,01,11,10,45,2.70
2013,01,11,10,46,2.70
2013,01,11,10,47,2.70
2013,01,11,10,48,2.70
2013,01,11,10,49,2.70
2013,01,11,10,50,2.70
2013,01,11,10,51,2.60
2013,01,11,10,52,2.60
2013,01,11,10,53,2.60
2013,01,11,10,54,2.60
2013,01,11,10,55,2.60
2013,01,11,10,56,2.60
2013,01,11,10,57,2.60
2013,01,11,10,58,2.60
2013,01,11,10,59,2.50
2013,01,11,11,00,2.50
2013,01,11,11,01,2.50
2013,01,11,11,02,2.50
2013,01,11,11,03,2.40
2013,01,11,11,04,2.40
2013,01,11,11,05,2.40
2013,01,11,11,06,2.40
2013,01,11,11,07,2.40
2013,01,11,11,08,2.40
2013,01,11,11,09,2.50
2013,01,11,11,10,2.50
2013,01,11,11,11,2.50
2013,01,11,11,12,2.50
2013,01,11,11,13,2.50
2013,01,11,11,14,2.50
2013,01,11,11,15,2.50
2013,01,11,11,16,2.50
2013,01,11,11,17,2.50
2013,01,11,11,18,2.60
2013,01,11,11,19,2.60
2013,01,11,11,20,2.60
2013,01,11,11,21,2.60
2013,01,11,11,22,2.60
2013,01,11,11,23,2.60
2013,01,11,11,24,2.70
2013,01,11,11,25,2.70
2013,01,11,11,26,2.70
2013,01,11,11,27,2.80
2013,01,11,11,28,2.80
2013,01,11,11,29,2.80
2013,01,11,11,30,2.80
2013,01,11,11,31,2.90
2013,01,11,11,32,2.90
2013,01,11,11,33,3.00
2013,01,11,11,34,3.00
2013,01,11,11,35,3.10
2013,01,11,11,36,3.10
2013,01,11,11,37,3.10
2013,01,11,11,38,3.10
2013,01,11,11,39,3.10
2013,01,11,11,40,3.20
2013,01,11,11,41,3.20
2013,01,11,11,42,3.20
2013,01,11,11,43,3.20
2013,01,11,11,44,3.20
2013,01,11,11,45,3.30
2013,01,11,11,46,3.30
2013,01,11,11,47,3.40
2013,01,11,11,48,3.40
2013,01,11,11,49,3.40
2013,01,11,11,50,3.40
2013,01,11,11,51,3.40
2013,01,11,11,52,3.40
2013,01,11,11,53,3.50
2013,01,11,11,54,3.50
2013,01,11,11,55,3.60
2013,01,11,11,56,3.60
2013,01,11,11,57,3.70
2013,01,11,11,58,3.70
2013,01,11,11,59,3.80
2013,01,11,12,00,3.90
2013,01,11,12,01,3.90
2013,01,11,12,02,3.80
2013,01,11,12,03,3.80
2013,01,11,12,04,3.70
2013,01,11,12,05,3.70
2013,01,11,12,06,3.80
2013,01,11,12,07,3.80
2013,01,11,12,08,3.80
2013,01,11,12,09,3.70
2013,01,11,12,10,3.70
2013,01,11,12,11,3.70
2013,01,11,12,12,3.70
2013,01,11,12,13,3.60
2013,01,11,12,14,3.50
2013,01,11,12,15,3.40
2013,01,11,12,16,3.40
2013,01,11,12,17,3.30
2013,01,11,12,18,3.30
2013,01,11,12,19,3.40
2013,01,11,12,20,3.40
2013,01,11,12,21,3.50
2013,01,11,12,22,3.50
2013,01,11,12,23,3.60
2013,01,11,12,24,3.60
2013,01,11,12,25,3.70
2013,01,11,12,26,3.80
2013,01,11,12,27,3.80
2013,01,11,12,28,3.70
2013,01,11,12,29,3.70
2013,01,11,12,30,3.60
2013,01,11,12,31,3.60
2013,01,11,12,32,3.60
2013,01,11,12,33,3.60
2013,01,11,12,34,3.60
2013,01,11,12,35,3.70
2013,01,11,12,36,3.70
2013,01,11,12,37,3.80
2013,01,11,12,38,3.80
2013,01,11,12,39,3.80
2013,01,11,12,40,3.70
2013,01,11,12,41,3.70
2013,01,11,12,42,3.60
2013,01,11,12,43,3.60
2013,01,11,12,44,3.70
2013,01,11,12,45,3.70
2013,01,11,12,46,3.70
2013,01,11,12,47,3.60
2013,01,11,12,48,3.60
2013,01,11,12,49,3.60
2013,01,11,12,50,3.60
2013,01,11,12,51,3.60
2013,01,11,12,52,3.60
2013,01,11,12,53,3.60
2013,01,11,12,54,3.70
2013,01,11,12,55,3.70
2013,01,11,12,56,3.70
2013,01,11,12,57,3.80
2013,01,11,12,58,3.80
2013,01,11,12,59,3.80
2013,01,11,13,00,3.90
2013,01,11,13,01,4.00
2013,01,11,13,02,3.90
2013,01,11,13,03,3.90
2013,01,11,13,04,3.90
2013,01,11,13,05,3.80
2013,01,11,13,06,3.90
2013,01,11,13,07,3.90
2013,01,11,13,08,3.90
2013,01,11,13,09,4.00
2013,01,11,13,10,4.00
2013,01,11,13,11,4.00
2013,01,11,13,12,4.00
2013,01,11,13,13,4.10
2013,01,11,13,14,4.10
2013,01,11,13,15,4.20
2013,01,11,13,16,4.30
2013,01,11,13,17,4.30
2013,01,11,13,18,4.40
2013,01,11,13,19,4.40
2013,01,11,13,20,4.40
2013,01,11,13,21,4.40
2013,01,11,13,22,4.30
2013,01,11,13,23,4.30
2013,01,11,13,24,4.20
2013,01,11,13,25,4.20
2013,01,11,13,26,4.20
2013,01,11,13,27,4.20
2013,01,11,13,28,4.20
2013,01,11,13,29,4.20
2013,01,11,13,30,4.20
2013,01,11,13,31,4.10
2013,01,11,13,32,4.10
2013,01,11,13,33,4.10
2013,01,11,13,34,4.20
2013,01,11,13,35,4.20
2013,01,11,13,36,4.20
2013,01,11,13,37,4.20
2013,01,11,13,38,4.20
2013,01,11,13,39,4.20
2013,01,11,13,40,4.20
2013,01,11,13,41,4.20
2013,01,11,13,42,4.20
2013,01,11,13,43,4.20
2013,01,11,13,44,4.20
2013,01,11,13,45,4.30
2013,01,11,13,46,4.30
2013,01,11,13,47,4.20
2013,01,11,13,48,4.20
2013,01,11,13,49,4.20
2013,01,11,13,50,4.20
2013,01,11,13,51,4.20
2013,01,11,13,52,4.20
2013,01,11,13,53,4.20
2013,01,11,13,54,4.20
2013,01,11,13,55,4.20
2013,01,11,13,56,4.30
2013,01,11,13,57,4.20
2013,01,11,13,58,4.20
2013,01,11,13,59,4.10
2013,01,11,14,00,4.10
2013,01,11,14,01,4.10
2013,01,11,14,02,4.20
2013,01,11,14,03,4.20
2013,01,11,14,04,4.20
2013,01,11,14,05,4.30
2013,01,11,14,06,4.30
2013,01,11,14,07,4.30
2013,01,11,14,08,4.40
2013,01,11,14,09,4.50
2013,01,11,14,10,4.60
2013,01,11,14,11,4.60
2013,01,11,14,12,4.60
2013,01,11,14,13,4.60
2013,01,11,14,14,4.60
2013,01,11,14,15,4.60
2013,01,11,14,16,4.60
2013,01,11,14,17,4.50
2013,01,11,14,18,4.50
2013,01,11,14,19,4.40
2013,01,11,14,20,4.30
2013,01,11,14,21,4.30
2013,01,11,14,22,4.30
2013,01,11,14,23,4.20
2013,01,11,14,24,4.20
2013,01,11,14,25,4.20
2013,01,11,14,26,4.20
2013,01,11,14,27,4.20
2013,01,11,14,28,4.10
2013,01,11,14,29,4.20
2013,01,11,14,30,4.20
2013,01,11,14,31,4.20
2013,01,11,14,32,4.20
2013,01,11,14,33,4.20
2013,01,11,14,34,4.20
2013,01,11,14,35,4.20
2013,01,11,14,36,4.10
2013,01,11,14,37,4.10
2013,01,11,14,38,4.00
2013,01,11,14,39,4.00
2013,01,11,14,40,4.00
2013,01,11,14,41,3.90
2013,01,11,14,42,3.90
2013,01,11,14,43,3.90
2013,01,11,14,44,3.80
2013,01,11,14,45,3.80
2013,01,11,14,46,3.70
2013,01,11,14,47,3.70
2013,01,11,14,48,3.70
2013,01,11,14,49,3.70
2013,01,11,14,50,3.70
2013,01,11,14,51,3.70
2013,01,11,14,52,3.70
2013,01,11,14,53,3.70
2013,01,11,14,54,3.70
2013,01,11,14,55,3.80
2013,01,11,14,56,3.80
2013,01,11,14,57,3.80
2013,01,11,14,58,3.80
2013,01,11,14,59,3.80
2013,01,11,15,00,3.80
2013,01,11,15,01,3.90
2013,01,11,15,02,3.90
2013,01,11,15,03,3.90
2013,01,11,15,04,4.00
2013,01,11,15,05,4.00
2013,01,11,15,06,4.00
2013,01,11,15,07,4.00
2013,01,11,15,08,4.00
2013,01,11,15,09,4.00
2013,01,11,15,10,4.10
2013,01,11,15,11,4.20
2013,01,11,15,12,4.30
2013,01,11,15,13,4.30
2013,01,11,15,14,4.40
2013,01,11,15,15,4.40
2013,01,11,15,16,4.40
2013,01,11,15,17,4.40
2013,01,11,15,18,4.40
2013,01,11,15,19,4.40
2013,01,11,15,20,4.40
2013,01,11,15,21,4.40
2013,01,11,15,22,4.40
2013,01,11,15,23,4.50
2013,01,11,15,24,4.50
2013,01,11,15,25,4.40
2013,01,11,15,26,4.40
2013,01,11,15,27,4.40
2013,01,11,15,28,4.40
2013,01,11,15,29,4.40
2013,01,11,15,30,4.30
2013,01,11,15,31,4.30
2013,01,11,15,32,4.30
2013,01,11,15,33,4.30
2013,01,11,15,34,4.40
2013,01,11,15,35,4.40
2013,01,11,15,36,4.40
2013,01,11,15,37,4.50
2013,01,11,15,38,4.50
2013,01,11,15,39,4.50
2013,01,11,15,40,4.40
2013,01,11,15,41,4.40
2013,01,11,15,42,4.30
2013,01,11,15,43,4.30
2013,01,11,15,44,4.30
2013,01,11,15,45,4.20
2013,01,11,15,46,4.20
2013,01,11,15,47,4.10
2013,01,11,15,48,4.00
2013,01,11,15,49,3.90
2013,01,11,15,50,3.80
2013,01,11,15,51,3.80
2013,01,11,15,52,3.70
2013,01,11,15,53,3.70
2013,01,11,15,54,3.60
2013,01,11,15,55,3.50
2013,01,11,15,56,3.50
2013,01,11,15,57,3.40
2013,01,11,15,58,3.30
2013,01,11,15,59,3.30
2013,01,11,16,00,3.20
2013,01,11,16,01,3.20
2013,01,11,16,02,3.10
2013,01,11,16,03,3.00
2013,01,11,16,04,2.90
2013,01,11,16,05,2.90
2013,01,11,16,06,2.80
2013,01,11,16,07,2.70
2013,01,11,16,08,2.70
2013,01,11,16,09,2.60
2013,01,11,16,10,2.60
2013,01,11,16,11,2.50
2013,01,11,16,12,2.50
2013,01,11,16,13,2.40
2013,01,11,16,14,2.40
2013,01,11,16,15,2.30
2013,01,11,16,16,2.20
2013,01,11,16,17,2.20
2013,01,11,16,18,2.20
2013,01,11,16,19,2.10
2013,01,11,16,20,2.00
2013,01,11,16,21,1.90
2013,01,11,16,22,1.90
2013,01,11,16,23,1.80
2013,01,11,16,24,1.80
2013,01,11,16,25,1.70
2013,01,11,16,26,1.60
2013,01,11,16,27,1.60
2013,01,11,16,28,1.50
2013,01,11,16,29,1.50
2013,01,11,16,30,1.40
2013,01,11,16,31,1.40
2013,01,11,16,32,1.30
2013,01,11,16,33,1.30
2013,01,11,16,34,1.20
2013,01,11,16,35,1.20
2013,01,11,16,36,1.20
2013,01,11,16,37,1.10
2013,01,11,16,38,1.10
2013,01,11,16,39,1.00
2013,01,11,16,40,1.00
2013,01,11,16,41,1.00
2013,01,11,16,42,1.00
2013,01,11,16,43,1.00
2013,01,11,16,44,0.90
2013,01,11,16,45,0.90
2013,01,11,16,46,0.90
2013,01,11,16,47,0.90
2013,01,11,16,48,0.90
2013,01,11,16,49,0.90
2013,01,11,16,50,0.90
2013,01,11,16,51,0.90
2013,01,11,16,52,0.90
2013,01,11,16,53,0.90
2013,01,11,16,54,0.90
2013,01,11,16,55,0.90
2013,01,11,16,56,0.90
2013,01,11,16,57,0.80
2013,01,11,16,58,0.80
2013,01,11,16,59,0.80
2013,01,11,17,00,0.80
2013,01,11,17,01,0.80
2013,01,11,17,02,0.70
2013,01,11,17,03,0.70
2013,01,11,17,04,0.70
2013,01,11,17,05,0.70
2013,01,11,17,06,0.70
2013,01,11,17,07,0.60
2013,01,11,17,08,0.60
2013,01,11,17,09,0.60
2013,01,11,17,10,0.60
2013,01,11,17,11,0.60
2013,01,11,17,12,0.50
2013,01,11,17,13,0.50
2013,01,11,17,14,0.50
2013,01,11,17,15,0.40
2013,01,11,17,16,0.40
2013,01,11,17,17,0.40
2013,01,11,17,18,0.40
2013,01,11,17,19,0.40
2013,01,11,17,20,0.40
2013,01,11,17,21,0.40
2013,01,11,17,22,0.40
2013,01,11,17,23,0.40
2013,01,11,17,24,0.40
2013,01,11,17,25,0.30
2013,01,11,17,26,0.30
2013,01,11,17,27,0.30
2013,01,11,17,28,0.30
2013,01,11,17,29,0.30
2013,01,11,17,30,0.30
2013,01,11,17,31,0.30
2013,01,11,17,32,0.20
2013,01,11,17,33,0.20
2013,01,11,17,34,0.20
2013,01,11,17,35,0.20
2013,01,11,17,36,0.20
2013,01,11,17,37,0.20
2013,01,11,17,38,0.10
2013,01,11,17,39,0.10
2013,01,11,17,40,0.10
2013,01,11,17,41,0.10
2013,01,11,17,42,0.10
2013,01,11,17,43,0.10
2013,01,11,17,44,0.10
2013,01,11,17,45,0.10
2013,01,11,17,46,0.00
2013,01,11,17,47,0.10
2013,01,11,17,48,0.10
2013,01,11,17,49,0.10
2013,01,11,17,50,0.10
2013,01,11,17,51,0.10
2013,01,11,17,52,0.00
2013,01,11,17,53,0.00
2013,01,11,17,54,0.00
2013,01,11,17,55,0.00
2013,01,11,17,56,0.00
2013,01,11,17,57,0.10
2013,01,11,17,58,0.00
2013,01,11,17,59,0.00
2013,01,11,18,00,0.00
2013,01,11,18,01,0.00
2013,01,11,18,02,0.00
2013,01,11,18,03,0.00
2013,01,11,18,04,0.00
2013,01,11,18,05,0.00
2013,01,11,18,06,0.00